Weather History for Fort Myers, FL

Change the Weather History Date:

Sunday, December 16, 2012

  Actual Average Record
Temperature  
Mean Temperature 72 °F 66 °F  
Max Temperature 82 °F 77 °F 87 °F (1948)
Min Temperature 61 °F 56 °F 32 °F (1968)
Degree Days  
Heating Degree Days 0 2  
Month to date heating degree days 0 27  
Since 1 July heating degree days 15 45  
Cooling Degree Days 7 4  
Month to date cooling degree days 114 71  
Year to date cooling degree days 4327 3934  
Growing Degree Days 22 (Base 50)    
Moisture  
Dew Point 63 °F    
Average Humidity 79    
Maximum Humidity 100    
Minimum Humidity 54    
Precipitation  
Precipitation 0.00 in 0.06 in 1.55 in (2003)
Month to date precipitation 1.87 0.79  
Year to date precipitation 49.30 55.01  
Sea Level Pressure  
Sea Level Pressure 30.01 in    
Wind  
Wind Speed 3 mph (SE)    
Max Wind Speed 10 mph    
Max Gust Speed 15 mph    
Visibility 10 miles    
Events      
T = Trace of Precipitation, MM = Missing Value Source: NWS Daily Summary

Daily Weather History Graph

Daily Weather History Graph

Search for Another Location

Airport:

Trip Planner

Search our weather history database for the weather conditions in past years. The results will help you decide how hot, cold, wet, or windy it might be!

Date:

Astronomy

Dec. 16, 2012 Rise Set
Actual Time 7:09 AM EST 5:37 PM EST
Civil Twilight 6:43 AM EST 6:03 PM EST
Nautical Twilight 6:14 AM EST 6:32 PM EST
Astronomical Twilight 5:46 AM EST 7:00 PM EST
Moon 9:57 AM EST (12/16) 9:32 PM EST (12/16)
Length of Visible Light 11h 19m
Length of Day
10h 28m
Waxing Crescent, 16% of the Moon is Illuminated
Dec 16
Waxing Crescent
Dec 20
First Quarter
Dec 28
Full
Jan 4
Last Quarter
Jan 11
New

Hourly Weather History & Observations

Time (EST) Temp. Heat Index Dew Point Humidity Pressure Visibility Wind Dir Wind Speed Gust Speed Precip Events Conditions
12:53 AM 64.9 °F - 61.0 °F 87% 30.04 in 10.0 mi Calm Calm - N/A   Clear
1:53 AM 64.0 °F - 61.0 °F 90% 30.04 in 10.0 mi East 3.5 mph - N/A   Clear
2:53 AM 63.0 °F - 61.0 °F 93% 30.03 in 10.0 mi ENE 3.5 mph - N/A   Clear
3:53 AM 63.0 °F - 62.1 °F 97% 30.02 in 10.0 mi East 3.5 mph - N/A   Clear
4:53 AM 62.1 °F - 61.0 °F 96% 30.04 in 10.0 mi Calm Calm - N/A   Clear
5:53 AM 62.1 °F - 61.0 °F 96% 30.02 in 10.0 mi Calm Calm - N/A   Clear
6:53 AM 62.1 °F - 61.0 °F 96% 30.04 in 10.0 mi Calm Calm - N/A   Clear
7:53 AM 64.0 °F - 62.1 °F 93% 30.04 in 10.0 mi East 3.5 mph - N/A   Clear
8:53 AM 69.1 °F - 64.9 °F 87% 30.06 in 10.0 mi East 3.5 mph - N/A   Clear
9:53 AM 75.0 °F - 66.0 °F 73% 30.06 in 10.0 mi ESE 5.8 mph - N/A   Scattered Clouds
10:53 AM 78.1 °F - 64.9 °F 64% 30.04 in 10.0 mi Variable 6.9 mph - N/A   Scattered Clouds
11:53 AM 79.0 °F - 64.0 °F 60% 30.02 in 10.0 mi SSE 9.2 mph - N/A   Clear
12:53 PM 81.0 °F 82.2 °F 63.0 °F 54% 29.99 in 10.0 mi Calm Calm - N/A   Clear
1:53 PM 81.0 °F 82.2 °F 63.0 °F 54% 29.96 in 10.0 mi SSE 6.9 mph - N/A   Clear
2:53 PM 80.1 °F 81.7 °F 64.0 °F 58% 29.95 in 10.0 mi SW 9.2 mph - N/A   Partly Cloudy
3:53 PM 79.0 °F - 64.0 °F 60% 29.96 in 10.0 mi SW 6.9 mph - N/A   Clear
5:53 PM 73.9 °F - 64.0 °F 71% 29.96 in 10.0 mi SW 4.6 mph - N/A   Scattered Clouds
6:53 PM 73.0 °F - 64.0 °F 73% 29.97 in 10.0 mi Calm Calm - N/A   Partly Cloudy
7:53 PM 73.0 °F - 64.9 °F 76% 29.98 in 10.0 mi Calm Calm - N/A   Overcast
8:53 PM 70.0 °F - 64.9 °F 84% 29.97 in 10.0 mi Calm Calm - N/A   Clear
9:53 PM 70.0 °F - 64.9 °F 84% 29.98 in 10.0 mi Calm Calm - N/A   Overcast
10:53 PM 71.1 °F - 66.0 °F 84% 29.99 in 10.0 mi Calm Calm - N/A   Overcast
11:53 PM 69.1 °F - 64.9 °F 87% 30.00 in 10.0 mi Calm Calm - N/A   Mostly Cloudy